Flag for U.S.A. Weather past 2 weeks in Santa Rosa, California, U.S.A.

Now
62 °F

Overcast.


Feels Like: 62 °F
Forecast: 58 / 79 °F
Wind: 5 mph from Northwest

Location: Santa Rosa Sonoma County Airport

Current Time: Aug 1, 2015 at 9:37:21 AM

Latest Report: Aug 1, 2015 at 8:53 AM


Visibility: 6 mi

Pressure: 30.00 "Hg

Humidity: 80%

Dew point: 56 °F

Location of Santa RosaLocation

Historic Weather in Santa Rosa — Graph

°F

Santa Rosa temperature yesterday

Maximum temperature yesterday: 79 °F (at 1:53 PM)
Minimum temperature yesterday: 59 °F (at 6:53 AM)
Average temperature yesterday: 65 °F

Past Weeks' High & Low Weather Summary

 TemperatureHumidityPressure
High98 °F (Jul 28, 1:53 PM)100% (Jul 24, 5:53 AM)30.08 "Hg (Jul 24, 5:53 AM)
Low49 °F (Jul 24, 5:53 AM)12% (Jul 28, 2:53 PM)29.75 "Hg (Jul 17, 5:53 PM)
Average68 °F66%29.91 "Hg
* Reported Jul 17 7:53 AM — Aug 1 7:53 AM, Santa Rosa, Weather by CustomWeather, © 2015

Note: Actual official high and low records may vary slightly from our data, if they occured in-between our weather recording intervals... More about our weather records

Advertising

Santa Rosa weather history for previous 24 hours

 ConditionsComfort  
Time TempWeatherWind HumidityBarometerVisibility
7:53 AM
Sat, Aug 1
60 °FFog.3 mph86%29.99 "Hg7 mi
6:53 AM60 °FFog.5 mph83%29.98 "Hg7 mi
5:53 AM60 °FLight rain. Low clouds.3 mph86%29.96 "Hg10 mi
4:53 AM60 °FLow clouds.3 mph90%29.95 "Hg10 mi
3:53 AM60 °FLow clouds.No wind86%29.94 "Hg10 mi
2:53 AM60 °FLow clouds.No wind86%29.94 "Hg10 mi
1:53 AM60 °FOvercast.No wind90%29.94 "Hg10 mi
12:53 AM60 °FLow clouds.3 mph90%29.94 "Hg10 mi
11:53 PM
Fri, Jul 31
59 °FPassing clouds.3 mph90%29.95 "Hg10 mi
10:53 PM60 °FClear.5 mph86%29.95 "Hg10 mi
9:53 PM62 °FClear.5 mph80%29.95 "Hg10 mi
8:53 PM63 °FSunny.6 mph81%29.94 "Hg10 mi
7:53 PM66 °FSunny.7 mph73%29.93 "Hg10 mi
6:53 PM70 °FPartly sunny.7 mph64%29.91 "Hg10 mi
5:53 PM71 °FPartly sunny.10 mph61%29.92 "Hg10 mi
4:53 PM71 °FPartly sunny.10 mph63%29.93 "Hg10 mi
3:53 PM75 °FPassing clouds.9 mph55%29.94 "Hg10 mi
2:53 PM74 °FMore clouds than sun.12 mph57%29.95 "Hg10 mi
1:53 PM79 °FBroken clouds.12 mph52%29.94 "Hg10 mi
12:53 PM76 °FBroken clouds.6 mph56%29.95 "Hg10 mi
11:53 AM70 °FScattered clouds.3 mph66%29.98 "Hg10 mi
10:53 AM68 °FScattered clouds.7 mph68%29.99 "Hg10 mi
9:53 AM63 °FOvercast.3 mph81%29.99 "Hg10 mi
Weather by CustomWeather, © 2015

See weather overviewHow to use our weather pages